Retour au catalogue

STARLINK-34527

ActifCommunicationsVLEO
NORAD 64482·PAYLOAD·🇺🇸 United States

Lancé Jun 23, 2025 depuis Cape Canaveral Space Force Station

Loading…

Prochains Passages (prochaines 24 heures)

TLE

FraisSource: CelesTrak SupGP

Époque: Sep 15, 2026, 03:39 UTC

1 64482C 25133L   26258.15256944  .00033022  00000+0  97565-3 0  2589
2 64482  53.1571 314.3932 0001162  95.0149 115.3698 15.34374003    15

Suivez STARLINK-34527 en temps réel avec AllMySat

Download on the App Store